Powrót do katalogu

JSW-03

AktywnyŁącznośćLEO
NORAD 62185·PAYLOAD·🇨🇳 China
Ta nazwa satelity nie została jeszcze potwierdzona przez oficjalne źródła.

Wystrzelony Nov 30, 2024 z Wenchang Space Launch Site

Loading…

Następne Przeloty (najbliższe 24 godziny)

TLE

ŚwieżeSource: Space-Track

Epoka: Sep 14, 2026, 14:58 UTC

1 62185U 24226A   26257.62372204 -.00000129  00000-0  85000-5 0  9997
2 62185  50.0049 286.1304 0056119  70.0503 290.6415 13.60155316 88883

Śledź JSW-03 w czasie rzeczywistym z AllMySat

Download on the App Store